Location: Kuppenheim
(48.8299°N, 8.2568°E)
Time: 16:29:49
(UTC+00:00)

USA 290 - Pass Details

Date: 20 June 2021
Orbit: 401 x 412 km, 73.6° (Epoch: 10 July)

Event Time Altitude Azimuth Distance (km) Brightness Sun altitude
Exits shadow 01:11:03 25° 169° (S) 873 3.4 -14.2°
Maximum altitude 01:12:34 46° 109° (ESE) 561 2.9 -14.1°
Drops below altitude 10° 01:15:41 10° 35° (NE) 1,472 6.4 -13.9°
Sets 01:17:46 0° 29° (NNE) 2,335 8.1 -13.7°
